CEB171 RPLL-YPPH

Flight info

Callsign CEB171
Flight time N/A
Altitude 36000
Route BUCAL2R BUCAL M646 VJN M522 NUGRO/N0473F380 M522 ELANG/N0474F370 M522 BLI G578 EGATU/N0470F390 L514 MUNNI/N0469F380 L514 AVPAL Q38 JULIM JULIM6A
Aircraft A339/H-V/N

Departure

Time N/A
Airport Ninoy Aquino International Airport (RPLL)

Arrival

Time 2026-04-29 22:19
Airport Perth International Airport (YPPH)
Time Latitude Longitude Altitude Speed Heading
2026-04-29 21:12 -24.63037 116.78449 36037 ft 456 kts 191°
2026-04-29 21:12 -24.69387 116.78294 36039 ft 455 kts 191°
2026-04-29 21:13 -24.75725 116.78141 36038 ft 454 kts 191°
2026-04-29 21:13 -24.82044 116.77985 36037 ft 454 kts 192°
2026-04-29 21:14 -24.88360 116.77830 36038 ft 454 kts 192°
2026-04-29 21:14 -24.94692 116.77675 36039 ft 455 kts 192°
2026-04-29 21:15 -25.01027 116.77521 36038 ft 455 kts 192°
2026-04-29 21:15 -25.07354 116.77363 36036 ft 456 kts 192°
2026-04-29 21:16 -25.13676 116.77209 36034 ft 455 kts 192°
2026-04-29 21:16 -25.20028 116.77052 36031 ft 456 kts 192°
2026-04-29 21:17 -25.26131 116.76899 36029 ft 456 kts 192°
2026-04-29 21:17 -25.32503 116.76743 36030 ft 456 kts 192°
2026-04-29 21:18 -25.38828 116.76585 36032 ft 457 kts 192°
2026-04-29 21:18 -25.45190 116.76427 36033 ft 455 kts 193°
2026-04-29 21:19 -25.51509 116.76270 36035 ft 456 kts 193°
2026-04-29 21:19 -25.57850 116.76111 36034 ft 455 kts 193°
2026-04-29 21:20 -25.64223 116.75954 36033 ft 457 kts 193°
2026-04-29 21:20 -25.70562 116.75795 36031 ft 456 kts 193°
2026-04-29 21:21 -25.76903 116.75638 36030 ft 457 kts 193°
2026-04-29 21:21 -25.83304 116.75478 36029 ft 456 kts 193°
2026-04-29 21:22 -25.89608 116.75320 36029 ft 457 kts 193°
2026-04-29 21:22 -25.95969 116.75163 36028 ft 457 kts 193°
2026-04-29 21:23 -26.02348 116.75002 36028 ft 455 kts 193°
2026-04-29 21:23 -26.08650 116.74844 36028 ft 457 kts 193°
2026-04-29 21:24 -26.15033 116.74683 36028 ft 455 kts 193°
2026-04-29 21:24 -26.21354 116.74522 36027 ft 458 kts 193°
2026-04-29 21:25 -26.27721 116.74363 36031 ft 458 kts 193°
2026-04-29 21:25 -26.34088 116.74204 36030 ft 455 kts 193°
2026-04-29 21:26 -26.40422 116.74044 36029 ft 455 kts 193°
2026-04-29 21:26 -26.46780 116.73883 36036 ft 457 kts 193°
2026-04-29 21:27 -26.53163 116.73719 36041 ft 458 kts 193°
2026-04-29 21:27 -26.59519 116.73560 36044 ft 458 kts 193°
2026-04-29 21:28 -26.65891 116.73400 36044 ft 457 kts 193°
2026-04-29 21:28 -26.72293 116.73238 36043 ft 457 kts 193°
2026-04-29 21:29 -26.78660 116.73074 36042 ft 459 kts 193°
2026-04-29 21:29 -26.84999 116.72915 36039 ft 456 kts 193°
2026-04-29 21:30 -26.91381 116.72752 36041 ft 459 kts 193°
2026-04-29 21:30 -26.97738 116.72591 36036 ft 458 kts 193°
2026-04-29 21:31 -27.04160 116.72426 36035 ft 458 kts 193°
2026-04-29 21:31 -27.10523 116.72265 36037 ft 459 kts 193°
2026-04-29 21:32 -27.16908 116.72100 36037 ft 460 kts 193°
2026-04-29 21:32 -27.23315 116.71938 36037 ft 459 kts 193°
2026-04-29 21:33 -27.29696 116.71774 36035 ft 460 kts 193°
2026-04-29 21:33 -27.36106 116.71609 36034 ft 461 kts 193°
2026-04-29 21:34 -27.42500 116.71446 36032 ft 460 kts 193°
2026-04-29 21:34 -27.48900 116.71281 36032 ft 462 kts 193°
2026-04-29 21:35 -27.55320 116.71117 36031 ft 463 kts 193°
2026-04-29 21:35 -27.61802 116.70950 36028 ft 462 kts 193°
2026-04-29 21:36 -27.68230 116.70784 36030 ft 464 kts 193°
2026-04-29 21:36 -27.74706 116.70616 36032 ft 464 kts 193°
2026-04-29 21:37 -27.81171 116.70451 36029 ft 465 kts 193°
2026-04-29 21:37 -27.87604 116.70285 36029 ft 464 kts 193°
2026-04-29 21:38 -27.94108 116.70115 36030 ft 466 kts 193°
2026-04-29 21:38 -28.00593 116.69947 36032 ft 465 kts 193°
2026-04-29 21:39 -28.07043 116.69781 36032 ft 465 kts 193°
2026-04-29 21:39 -28.13544 116.69610 36029 ft 467 kts 193°
2026-04-29 21:40 -28.20064 116.69441 36030 ft 466 kts 193°
2026-04-29 21:40 -28.26557 116.69272 36030 ft 467 kts 193°
2026-04-29 21:41 -28.33012 116.69105 36032 ft 466 kts 193°
2026-04-29 21:41 -28.39493 116.68933 36029 ft 468 kts 193°
2026-04-29 21:42 -28.46020 116.68763 36034 ft 468 kts 192°
2026-04-29 21:42 -28.52541 116.68591 36031 ft 468 kts 192°
2026-04-29 21:43 -28.59078 116.68420 36030 ft 469 kts 192°
2026-04-29 21:43 -28.65569 116.68252 36033 ft 469 kts 192°
2026-04-29 21:44 -28.72133 116.68079 36031 ft 469 kts 192°
2026-04-29 21:44 -28.78654 116.67907 36031 ft 472 kts 192°
2026-04-29 21:45 -28.85206 116.67734 36033 ft 472 kts 192°
2026-04-29 21:45 -28.91796 116.67560 36033 ft 472 kts 192°
2026-04-29 21:46 -28.98338 116.67390 36031 ft 471 kts 192°
2026-04-29 21:46 -29.04934 116.67214 36032 ft 473 kts 192°
2026-04-29 21:47 -29.11508 116.67039 35983 ft 473 kts 192°
2026-04-29 21:47 -29.14795 116.66952 35730 ft 472 kts 192°
2026-04-29 21:47 -29.18039 116.66868 35485 ft 470 kts 192°
2026-04-29 21:47 -29.21318 116.66782 35237 ft 468 kts 192°
2026-04-29 21:48 -29.24553 116.66697 34990 ft 466 kts 192°
2026-04-29 21:48 -29.27797 116.66610 34744 ft 466 kts 191°
2026-04-29 21:48 -29.31041 116.66523 34494 ft 466 kts 191°
2026-04-29 21:48 -29.34287 116.66436 34249 ft 466 kts 191°
2026-04-29 21:49 -29.37545 116.66346 34007 ft 467 kts 191°
2026-04-29 21:49 -29.40766 116.66259 33765 ft 469 kts 191°
2026-04-29 21:49 -29.44065 116.66170 33516 ft 470 kts 191°
2026-04-29 21:49 -29.47311 116.66083 33277 ft 470 kts 191°
2026-04-29 21:50 -29.50601 116.65995 33035 ft 471 kts 191°
2026-04-29 21:50 -29.53847 116.65909 32790 ft 471 kts 191°
2026-04-29 21:50 -29.57132 116.65823 32548 ft 472 kts 191°
2026-04-29 21:50 -29.60439 116.65733 32301 ft 472 kts 191°
2026-04-29 21:51 -29.63689 116.65648 32055 ft 472 kts 190°
2026-04-29 21:51 -29.66968 116.65560 31805 ft 472 kts 190°
2026-04-29 21:51 -29.73548 116.65385 31117 ft 473 kts 190°
2026-04-29 21:52 -29.76842 116.65295 30623 ft 474 kts 190°
2026-04-29 21:52 -29.80131 116.65208 30023 ft 474 kts 190°
2026-04-29 21:52 -29.83439 116.65121 29534 ft 470 kts 190°
2026-04-29 21:52 -29.86691 116.65039 29186 ft 463 kts 190°
2026-04-29 21:53 -29.89881 116.64957 28816 ft 457 kts 190°
2026-04-29 21:53 -29.93040 116.64873 28436 ft 452 kts 190°
2026-04-29 21:53 -29.96174 116.64789 28040 ft 447 kts 190°
2026-04-29 21:53 -29.99255 116.64704 27591 ft 444 kts 190°
2026-04-29 21:54 -30.02367 116.64618 27160 ft 441 kts 190°
2026-04-29 21:54 -30.05396 116.64535 26759 ft 437 kts 190°
2026-04-29 21:54 -30.08435 116.64453 26359 ft 433 kts 190°
2026-04-29 21:54 -30.11415 116.64372 25956 ft 429 kts 190°
2026-04-29 21:55 -30.14425 116.64291 25579 ft 425 kts 189°
2026-04-29 21:55 -30.17373 116.64209 25176 ft 422 kts 189°
2026-04-29 21:55 -30.20295 116.64128 24775 ft 419 kts 189°
2026-04-29 21:55 -30.23208 116.64049 24370 ft 416 kts 189°
2026-04-29 21:56 -30.26085 116.63970 23949 ft 414 kts 189°
2026-04-29 21:56 -30.28972 116.63892 23552 ft 412 kts 189°
2026-04-29 21:56 -30.31801 116.63814 23147 ft 410 kts 188°
2026-04-29 21:56 -30.34647 116.63735 22747 ft 408 kts 188°
2026-04-29 21:57 -30.37493 116.63657 22328 ft 407 kts 188°
2026-04-29 21:57 -30.40305 116.63581 21923 ft 405 kts 188°
2026-04-29 21:57 -30.43135 116.63505 21525 ft 403 kts 187°
2026-04-29 21:57 -30.45945 116.63428 21107 ft 402 kts 187°
2026-04-29 21:58 -30.48706 116.63353 20684 ft 400 kts 187°
2026-04-29 21:58 -30.51493 116.63277 20291 ft 398 kts 187°
2026-04-29 21:58 -30.54237 116.63047 19888 ft 392 kts 193°
2026-04-29 21:58 -30.56904 116.62485 19481 ft 386 kts 199°
2026-04-29 21:59 -30.59475 116.61623 19083 ft 381 kts 203°
2026-04-29 21:59 -30.61982 116.60652 18690 ft 379 kts 204°
2026-04-29 21:59 -30.64457 116.59673 18301 ft 377 kts 204°
2026-04-29 21:59 -30.66937 116.58692 17894 ft 375 kts 204°
2026-04-29 22:00 -30.69408 116.57723 17493 ft 374 kts 203°
2026-04-29 22:00 -30.71857 116.56767 17105 ft 371 kts 203°
2026-04-29 22:00 -30.74294 116.55816 16729 ft 369 kts 203°
2026-04-29 22:00 -30.76727 116.54868 16349 ft 367 kts 203°
2026-04-29 22:01 -30.79138 116.53928 15972 ft 365 kts 203°
2026-04-29 22:01 -30.81531 116.52995 15600 ft 363 kts 203°
2026-04-29 22:01 -30.83937 116.52057 15222 ft 361 kts 202°
2026-04-29 22:01 -30.86315 116.51130 14841 ft 359 kts 202°
2026-04-29 22:02 -30.88654 116.50217 14466 ft 357 kts 202°
2026-04-29 22:02 -30.91021 116.49292 14087 ft 355 kts 202°
2026-04-29 22:02 -30.93362 116.48376 13714 ft 354 kts 202°
2026-04-29 22:02 -30.95700 116.47459 13342 ft 352 kts 202°
2026-04-29 22:03 -30.98015 116.46553 12971 ft 351 kts 202°
2026-04-29 22:03 -31.00299 116.45657 12587 ft 350 kts 202°
2026-04-29 22:03 -31.02596 116.44758 12202 ft 349 kts 201°
2026-04-29 22:03 -31.04896 116.43857 11816 ft 348 kts 201°
2026-04-29 22:04 -31.07203 116.42953 11427 ft 346 kts 201°
2026-04-29 22:04 -31.09465 116.42067 11041 ft 345 kts 201°
2026-04-29 22:04 -31.11738 116.41174 10660 ft 344 kts 201°
2026-04-29 22:04 -31.14013 116.40282 10307 ft 341 kts 201°
2026-04-29 22:05 -31.16217 116.39419 10229 ft 329 kts 201°
2026-04-29 22:05 -31.18371 116.38575 10176 ft 317 kts 201°
2026-04-29 22:05 -31.22408 116.36989 10073 ft 295 kts 201°
2026-04-29 22:06 -31.24321 116.36237 10031 ft 285 kts 201°
2026-04-29 22:06 -31.26187 116.35500 9812 ft 282 kts 201°
2026-04-29 22:06 -31.28045 116.34764 9504 ft 282 kts 202°
2026-04-29 22:06 -31.29903 116.34028 9219 ft 282 kts 202°
2026-04-29 22:07 -31.31760 116.33295 8945 ft 281 kts 202°
2026-04-29 22:07 -31.33602 116.32568 8681 ft 280 kts 202°
2026-04-29 22:07 -31.35437 116.31843 8421 ft 278 kts 202°
2026-04-29 22:07 -31.37276 116.31117 8162 ft 277 kts 201°
2026-04-29 22:08 -31.39109 116.30393 7906 ft 276 kts 201°
2026-04-29 22:08 -31.40918 116.29645 7650 ft 274 kts 205°
2026-04-29 22:08 -31.42644 116.28745 7395 ft 272 kts 210°
2026-04-29 22:08 -31.44315 116.27706 7134 ft 270 kts 211°
2026-04-29 22:09 -31.45943 116.26663 6883 ft 269 kts 211°
2026-04-29 22:09 -31.47602 116.25597 6588 ft 266 kts 211°
2026-04-29 22:09 -31.49182 116.24583 6358 ft 259 kts 211°
2026-04-29 22:09 -31.50763 116.23567 6107 ft 259 kts 211°
2026-04-29 22:10 -31.52339 116.22555 5859 ft 258 kts 211°
2026-04-29 22:10 -31.53929 116.21537 5613 ft 258 kts 211°
2026-04-29 22:10 -31.55496 116.20534 5371 ft 257 kts 210°
2026-04-29 22:10 -31.57058 116.19532 5134 ft 257 kts 210°
2026-04-29 22:11 -31.58639 116.18516 4894 ft 256 kts 210°
2026-04-29 22:11 -31.60205 116.17513 4651 ft 256 kts 210°
2026-04-29 22:11 -31.61772 116.16509 4409 ft 255 kts 209°
2026-04-29 22:11 -31.63282 116.15540 4296 ft 242 kts 209°
2026-04-29 22:12 -31.64726 116.14615 4301 ft 231 kts 209°
2026-04-29 22:12 -31.66146 116.13705 4109 ft 230 kts 209°
2026-04-29 22:12 -31.67535 116.12812 3981 ft 224 kts 209°
2026-04-29 22:12 -31.68879 116.11950 3969 ft 213 kts 209°
2026-04-29 22:13 -31.70148 116.11134 3954 ft 201 kts 209°
2026-04-29 22:13 -31.71333 116.10371 3915 ft 192 kts 209°
2026-04-29 22:13 -31.74519 116.08315 3525 ft 188 kts 210°
2026-04-29 22:13 -31.75555 116.07391 3369 ft 186 kts 225°
2026-04-29 22:14 -31.76381 116.06248 3224 ft 184 kts 231°
2026-04-29 22:14 -31.77141 116.05053 3077 ft 180 kts 232°
2026-04-29 22:14 -31.77880 116.03884 2872 ft 178 kts 231°
2026-04-29 22:14 -31.78626 116.02716 2669 ft 177 kts 231°
2026-04-29 22:15 -31.79352 116.01583 2598 ft 166 kts 231°
2026-04-29 22:15 -31.80203 116.00702 2583 ft 165 kts 206°
2026-04-29 22:15 -31.81260 116.00217 2416 ft 164 kts 195°
2026-04-29 22:15 -31.82363 115.99880 2190 ft 163 kts 193°
2026-04-29 22:16 -31.83460 115.99577 1979 ft 159 kts 192°
2026-04-29 22:16 -31.84514 115.99284 1749 ft 153 kts 193°
2026-04-29 22:16 -31.85529 115.98991 1542 ft 147 kts 193°
2026-04-29 22:16 -31.86491 115.98709 1350 ft 142 kts 193°
2026-04-29 22:17 -31.87444 115.98429 1174 ft 142 kts 193°
2026-04-29 22:17 -31.88410 115.98148 988 ft 142 kts 193°
2026-04-29 22:17 -31.89355 115.97871 803 ft 142 kts 193°
2026-04-29 22:17 -31.90313 115.97590 609 ft 142 kts 193°
2026-04-29 22:18 -31.91260 115.97320 404 ft 142 kts 193°
2026-04-29 22:18 -31.92210 115.97034 209 ft 142 kts 194°
2026-04-29 22:18 -31.93176 115.96755 71 ft 140 kts 194°
2026-04-29 22:18 -31.94014 115.96511 73 ft 105 kts 193°
2026-04-29 22:19 -31.94556 115.96353 77 ft 53 kts 194°
2026-04-29 22:19 -31.94871 115.96262 77 ft 41 kts 194°
2026-04-29 22:19 -31.95036 115.96228 78 ft 15 kts 160°
2026-04-29 22:19 -31.95093 115.96326 80 ft 14 kts 103°
2026-04-29 22:20 -31.95113 115.96426 82 ft 3 kts 104°
2026-04-29 22:20 -31.95114 115.96426 82 ft 0 kts 104°
2026-04-29 22:23 -31.95114 115.96427 82 ft 0 kts 104°
2026-04-29 22:23 -31.95116 115.96438 82 ft 2 kts 104°
2026-04-29 22:24 -31.95123 115.96471 82 ft 5 kts 102°
2026-04-29 22:24 -31.95111 115.96529 82 ft 9 kts 52°
2026-04-29 22:24 -31.95037 115.96564 81 ft 13 kts 14°
2026-04-29 22:24 -31.94945 115.96591 82 ft 14 kts 14°
2026-04-29 22:25 -31.94842 115.96621 80 ft 16 kts 14°
2026-04-29 22:25 -31.94722 115.96656 78 ft 19 kts 14°
2026-04-29 22:25 -31.94588 115.96694 77 ft 20 kts 13°
2026-04-29 22:25 -31.94451 115.96735 77 ft 20 kts 14°
2026-04-29 22:26 -31.94316 115.96773 76 ft 20 kts 13°
2026-04-29 22:26 -31.94220 115.96802 74 ft 8 kts 23°
2026-04-29 22:26 -31.94190 115.96864 74 ft 9 kts 93°
2026-04-29 22:26 -31.94203 115.96935 75 ft 7 kts 104°
2026-04-29 22:27 -31.94209 115.96977 76 ft 3 kts 80°
2026-04-29 22:27 -31.94198 115.96995 77 ft 2 kts 34°
2026-04-29 22:27 -31.94181 115.97003 77 ft 2 kts 16°
2026-04-29 22:27 -31.94163 115.97008 77 ft 2 kts 14°